Wind_Speed
12 12 11 10 11 11 11 10 10 13 18 22 24 23 21 18 16 17 18 20 20 20 21 21 21 20 20 20 20 20 19 18 18 19 21 23 25 27 30 32 34 36 37 38 40 42 45 48 50 52 54 57 58 60 60 59 56 54 53 51 50 49 49 49 48 47 47 47 49
11 12 12 11 10 10 10 8 9 12 15 18 18 17 16 14 13 13 14 16 17 18 19 20 20 20 20 20 20 20 19 19 18 19 20 21 23 26 29 32 35 37 38 39 41 44 47 50 52 53 55 57 57 56 55 53 51 50 50 49 49 48 49 50 50 50 49 49 49
8 10 12 14 13 13 11 11 11 13 15 16 17 16 16 15 14 14 15 17 17 18 18 18 18 17 18 18 17 17 17 17 18 18 19 20 21 24 28 33 35 37 38 40 43 46 48 50 52 52 52 52 51 49 48 48 49 49 50 50 49 49 49 50 51 52 52 50 50
6 7 9 10 12 12 12 12 12 12 13 13 14 14 15 15 15 16 17 19 20 20 20 19 17 17 16 15 14 13 13 14 15 16 17 17 18 21 26 30 33 34 36 39 42 45 48 49 50 49 48 46 44 43 44 46 48 50 51 51 51 50 51 52 53 54 55 55 54
10 8 7 7 9 10 10 10 10 10 11 11 12 13 13 14 15 16 18 20 21 21 21 20 18 17 16 14 12 11 11 11 12 13 14 15 16 17 20 23 26 29 31 34 37 41 44 46 46 45 43 41 40 40 41 44 46 48 49 50 50 51 52 53 55 56 58 58 58
15 14 12 10 9 10 11 10 9 10 10 10 11 11 11 12 12 13 15 17 20 21 21 20 19 19 17 15 13 12 12 11 11 12 12 13 13 13 14 15 16 19 22 26 30 34 38 41 42 42 41 39 38 37 38 40 42 43 45 46 47 49 51 53 55 56 57 57 56
20 18 16 15 13 13 14 14 12 11 11 10 9 9 8 8 8 9 11 14 17 19 20 20 21 20 18 16 15 15 15 14 13 12 12 12 12 12 11 11 11 11 13 16 21 27 33 36 38 38 38 38 38 37 37 38 38 39 41 43 45 46 48 50 52 53 53 53 53
25 22 21 20 17 18 20 18 15 14 13 12 11 9 8 7 6 7 8 10 11 13 15 17 19 19 19 19 18 18 17 17 16 15 14 13 12 11 11 10 10 10 10 11 13 18 24 30 34 35 36 36 36 37 38 38 38 38 39 40 42 44 45 46 47 47 47 48 49
29 28 26 26 26 28 29 26 23 22 23 23 22 20 18 17 15 12 9 8 7 7 8 10 13 15 18 19 20 20 20 19 18 16 15 15 14 13 12 11 11 11 11 11 12 13 17 22 27 30 32 32 32 33 34 36 37 37 38 39 39 40 41 42 42 41 41 42 44
32 31 30 31 32 33 32 32 32 32 31 31 29 28 28 27 26 24 21 19 18 16 13 9 7 8 11 14 16 17 18 18 18 17 17 17 16 15 15 15 14 14 14 14 14 13 14 16 19 22 25 26 27 27 29 31 32 34 35 36 37 37 37 37 37 36 35 36 38
34 33 33 33 32 31 31 31 31 31 31 30 30 29 29 29 29 28 27 26 25 24 23 20 17 13 11 9 9 10 11 12 13 14 15 16 17 17 17 17 17 17 17 17 17 16 15 15 15 16 18 19 21 23 26 28 29 30 31 32 34 35 35 36 35 35 34 33 33
35 35 34 33 33 32 32 31 31 31 31 30 30 29 29 28 28 27 26 26 26 26 25 24 23 22 20 19 16 14 12 11 9 9 10 11 13 14 16 17 18 18 18 19 19 19 18 17 17 16 15 16 17 19 22 24 25 26 27 28 30 31 33 35 35 34 33 32 31
36 35 35 34 34 33 33 32 32 32 32 31 31 31 30 29 28 27 27 27 26 25 24 23 23 22 22 21 20 20 19 18 16 14 12 10 9 9 10 12 14 15 17 18 19 19 19 19 19 18 18 17 16 16 17 18 19 21 22 24 26 28 29 31 32 31 30 29 29
36 36 36 36 36 35 34 33 33 32 32 32 32 31 30 30 29 28 28 28 28 27 25 24 23 22 21 20 19 19 18 18 18 17 16 15 14 12 10 9 9 9 10 12 14 16 17 18 18 18 18 18 17 17 16 16 15 16 18 20 22 24 26 27 28 28 27 27 27
35 36 36 37 37 36 36 35 34 34 33 32 32 31 30 30 29 29 29 29 29 28 27 26 25 24 23 21 20 18 17 16 16 16 16 16 15 15 14 13 11 10 9 8 8 9 11 13 14 15 16 17 17 17 17 17 17 17 17 17 18 20 21 23 24 25 26 26 26
33 33 34 36 36 37 37 36 35 34 33 32 31 30 29 29 28 28 28 28 28 27 27 27 26 25 24 23 21 20 18 17 16 15 14 14 14 14 14 14 13 13 12 10 8 7 6 6 8 9 11 13 15 16 18 19 19 19 19 19 18 18 18 19 20 22 23 25 26
31 30 31 33 34 35 36 35 34 32 32 31 30 28 27 26 26 25 25 25 25 25 25 25 25 24 23 23 22 21 20 19 18 16 14 13 13 13 13 12 12 12 12 11 10 9 8 6 5 4 5 7 9 12 14 16 18 20 21 21 21 20 20 20 20 20 21 22 24
29 28 28 29 31 31 31 30 29 28 28 28 27 26 24 23 23 22 22 22 22 23 23 22 22 21 21 21 21 21 21 20 19 18 17 16 15 14 13 13 12 11 11 10 10 9 9 8 7 5 4 2 2 4 6 9 11 14 16 18 20 21 21 21 21 21 21 21 21
28 26 26 27 27 27 26 25 24 24 24 24 23 22 21 21 20 19 19 19 20 20 20 19 19 18 18 19 19 19 19 19 19 18 18 17 17 16 15 15 14 13 12 11 10 9 9 8 8 7 6 5 3 2 1 1 3 5 7 10 12 14 16 17 19 20 20 20 19
27 25 25 25 25 25 25 24 24 23 22 22 20 20 19 18 18 18 18 18 18 17 17 17 17 16 16 16 17 17 18 18 17 17 16 16 16 16 16 16 16 15 14 14 13 12 12 11 10 10 9 8 7 6 5 4 3 2 2 2 4 5 7 9 11 13 15 16 17
28 26 25 25 25 25 25 25 24 24 23 22 21 20 19 18 17 17 17 17 17 16 15 14 14 14 14 15 16 16 17 16 16 16 16 15 15 15 15 15 15 14 14 14 14 14 13 13 13 12 12 12 11 10 9 9 8 7 6 6 5 5 5 5 5 6 8 10 12
29 28 27 26 26 26 26 25 25 24 23 23 22 21 21 20 19 19 18 17 17 16 14 13 13 13 13 14 15 15 15 15 15 15 15 14 14 14 13 13 12 12 12 12 12 12 12 12 12 13 13 14 14 14 13 13 13 12 12 12 11 11 10 10 8 8 7 7 8
28 28 27 27 26 26 26 25 25 24 24 23 23 22 22 22 21 21 20 19 18 18 17 16 15 15 14 14 14 14 14 14 14 14 14 14 13 13 13 12 12 12 11 11 11 11 11 10 10 11 12 12 14 15 15 16 16 16 16 16 16 15 15 15 14 13 12 11 10
27 27 27 26 26 26 26 25 25 25 25 24 24 24 23 23 23 22 22 21 21 20 20 19 19 18 17 17 16 15 15 14 14 14 14 14 13 13 13 13 12 12 12 13 13 13 12 12 11 10 10 10 11 12 14 16 17 18 18 18 18 18 18 18 17 17 16 15 15
26 26 26 26 25 25 25 25 25 25 25 25 24 24 24 24 24 23 23 23 22 22 22 22 21 21 20 19 19 18 17 17 16 16 16 15 15 15 14 14 14 14 14 14 14 14 14 14 14 13 12 11 10 10 11 12 14 16 17 18 19 19 19 19 19 18 18 18 18
25 25 25 25 25 25 25 25 25 25 25 25 24 24 24 24 24 23 23 23 23 23 23 23 23 22 22 21 21 20 20 19 19 18 18 18 17 17 17 16 16 16 16 16 16 16 16 15 15 15 14 14 13 12 11 11 11 12 13 15 17 18 19 20 20 19 19 19 19
25 25 25 25 24 25 25 25 24 24 24 24 24 24 24 24 24 23 23 23 23 23 23 23 24 24 23 23 22 22 22 22 21 21 20 20 19 19 19 18 18 18 18 17 17 17 17 17 17 17 16 16 15 14 14 13 13 12 12 12 13 15 16 17 19 19 20 20 20
25 25 25 25 25 25 25 25 25 25 25 25 24 24 24 23 23 23 23 24 23 24 24 24 24 24 24 23 23 23 23 23 23 22 22 21 21 21 20 20 20 19 19 18 18 18 18 18 18 18 18 17 17 17 16 16 15 15 14 14 14 14 14 15 16 17 18 19 20
26 26 26 26 26 26 25 25 25 25 25 25 24 24 24 24 24 24 24 24 24 25 25 25 25 24 24 24 24 24 24 24 23 23 23 22 22 22 21 21 21 20 20 19 19 19 19 19 19 19 19 19 19 19 18 18 17 17 17 17 16 16 16 16 16 17 17 18 18
26 26 26 26 26 26 26 26 26 26 25 25 25 24 24 24 24 25 25 25 25 26 26 25 25 25 25 25 24 24 24 24 24 24 23 23 23 22 22 22 21 21 21 20 20 20 20 20 20 20 20 20 20 20 20 20 19 19 19 18 18 18 18 19 19 19 19 19 19
26 26 26 26 27 27 27 26 26 26 26 25 25 25 25 25 26 26 26 26 26 26 25 25 25 25 25 25 25 25 25 25 25 24 24 24 23 23 23 22 22 22 22 21 21 21 21 21 21 22 22 21 21 21 21 21 21 21 20 20 20 20 20 20 20 20 20 21 21
26 26 26 26 26 26 26 26 26 26 26 26 26 26 26 26 26 27 27 27 26 26 26 26 26 26 26 26 26 26 26 26 25 25 25 25 24 24 23 23 23 23 22 22 22 22 22 22 23 23 23 23 22 22 22 21 21 21 21 21 21 21 21 20 20 20 21 21 21
26 26 26 26 26 26 26 26 26 26 26 26 26 26 26 27 27 27 27 27 27 27 27 27 27 27 27 27 27 27 27 26 26 26 26 26 25 25 24 24 24 24 24 23 23 23 23 23 23 23 24 24 23 23 22 22 21 21 21 21 21 21 21 21 21 21 21 21 21
26 26 26 26 26 26 26 26 26 26 26 26 26 27 27 27 27 28 28 28 28 28 28 29 29 29 29 28 28 28 28 27 27 27 27 26 26 26 26 25 25 25 25 24 24 24 24 24 24 24 24 24 24 24 23 23 22 22 21 21 21 21 21 21 21 21 21 21 21
27 27 27 27 27 27 27 28 27 27 27 27 27 27 28 28 28 28 29 29 29 29 29 29 29 29 29 29 29 29 29 29 29 28 28 28 28 27 27 27 27 26 26 26 26 26 26 25 25 25 25 25 25 24 24 24 23 23 23 23 22 22 22 21 21 21 22 22 21
29 29 29 29 29 29 29 29 29 29 29 28 28 29 29 29 29 29 29 29 29 29 30 30 30 30 31 31 31 31 31 31 30 30 30 30 29 29 29 29 29 28 28 28 28 28 27 27 27 26 26 26 25 25 25 25 24 24 25 24 24 24 23 23 22 22 22 21 22
30 30 30 30 30 30 30 30 30 30 30 29 29 29 29 29 29 29 29 30 30 30 31 31 31 31 32 32 33 33 33 33 32 32 32 32 32 32 31 31 31 31 30 30 30 29 29 28 28 27 27 26 26 25 25 25 25 25 25 25 25 24 24 24 23 22 22 21 21
30 30 30 30 30 30 30 30 30 30 30 30 30 30 29 29 30 30 30 30 31 31 31 32 32 32 33 33 33 34 34 34 34 34 34 34 34 33 33 33 33 32 32 31 31 30 29 28 27 26 26 26 25 25 25 25 25 25 25 25 25 24 24 24 23 23 22 21 21
29 29 29 29 29 29 29 29 29 29 29 29 29 29 29 29 30 30 30 31 31 31 32 32 32 33 33 33 34 34 34 34 35 35 35 35 35 34 34 33 32 32 31 31 30 28 27 26 25 24 24 24 24 24 24 24 24 24 23 23 24 24 24 23 23 23 23 22 21
27 27 27 27 27 27 27 27 27 27 27 28 28 28 28 28 29 29 29 30 30 30 30 31 31 31 32 32 32 32 32 32 33 33 34 34 34 34 33 32 31 30 30 29 28 27 25 24 23 22 22 22 22 22 22 22 22 21 21 21 22 22 22 22 22 23 23 23 22
24 24 24 24 24 25 25 25 25 25 25 25 25 25 25 25 25 25 25 26 26 26 26 27 27 27 27 27 27 28 28 28 29 29 30 30 31 31 31 31 30 30 29 29 29 28 26 25 24 23 23 22 21 20 20 19 19 18 18 19 19 20 20 21 21 21 22 22 22
Wind_Direction
237 233 229 225 222 223 225 230 239 248 251 252 253 252 250 246 239 233 231 236 241 246 249 251 252 252 252 251 251 251 251 252 254 255 253 250 247 246 247 249 251 251 250 249 248 246 244 242 240 239 238 236 233 230 228 227 227 228 229 229 228 227 226 223 220 218 216 215 217
224 225 226 225 216 210 208 210 222 230 232 232 232 232 234 237 238 235 232 234 239 243 247 251 252 252 252 253 252 252 251 252 253 254 254 253 251 250 250 250 251 251 249 247 244 241 238 235 232 230 229 227 225 224 224 227 229 231 231 231 232 230 228 225 223 221 219 218 218
200 212 219 225 226 228 232 234 232 229 226 224 224 225 226 229 229 228 226 227 232 235 238 241 244 246 248 251 252 252 252 252 253 254 254 255 255 254 252 249 246 244 243 242 240 237 234 231 228 225 222 220 220 223 226 230 232 234 234 235 236 235 233 230 227 225 223 220 219
149 176 198 209 219 225 230 231 227 222 218 217 218 219 221 223 225 226 227 229 232 235 237 237 236 236 239 246 252 256 257 257 255 253 254 256 258 257 252 246 239 235 234 234 233 232 230 229 227 224 223 223 226 229 230 230 231 233 234 236 237 237 236 234 232 229 225 222 221
124 131 146 165 186 198 205 209 205 201 200 203 205 208 211 215 218 222 226 229 232 235 237 238 236 234 232 235 243 252 260 265 263 258 255 255 258 257 252 244 237 233 231 229 227 226 227 228 227 227 227 229 232 233 232 231 230 230 231 232 234 234 235 234 232 230 226 224 222
112 113 116 126 143 160 168 167 162 163 171 183 192 197 202 207 211 216 221 225 230 232 234 236 236 235 233 232 231 235 241 250 256 257 256 256 257 257 254 247 241 237 235 232 228 225 225 226 228 229 231 232 233 234 234 233 231 230 230 230 231 231 231 230 229 228 226 224 223
105 107 110 113 120 130 136 133 130 137 150 162 173 179 183 188 193 200 209 216 222 225 228 230 231 231 232 232 231 231 231 233 234 236 240 246 251 256 257 254 250 247 244 241 237 232 229 227 226 227 228 229 230 232 234 234 233 232 232 231 231 230 230 229 229 228 227 227 226
100 101 102 104 108 109 109 114 119 121 120 121 125 128 131 134 141 158 178 193 203 210 215 218 220 222 224 226 227 228 229 230 230 230 230 230 233 238 244 250 254 255 254 253 249 242 235 230 226 223 221 221 222 224 227 229 230 231 232 232 232 232 231 231 231 231 231 231 231
92 94 96 94 92 90 90 94 97 96 93 93 94 94 94 93 94 100 112 124 131 150 178 197 207 212 215 218 221 222 223 224 225 227 229 229 229 227 224 225 228 232 237 242 245 244 241 236 230 226 222 220 220 220 221 222 224 225 227 229 230 232 233 233 233 234 236 237 237
83 85 85 82 80 78 78 80 81 81 82 81 81 81 81 80 79 79 81 83 86 91 97 109 138 176 196 205 210 211 211 214 217 221 224 227 228 227 224 221 215 213 214 216 219 225 232 236 235 233 232 231 230 229 227 224 223 222 223 224 226 228 230 231 232 233 236 239 241
73 73 73 71 70 69 69 69 70 70 71 71 70 70 69 68 68 69 71 74 77 78 79 79 84 92 105 125 146 166 180 190 200 208 214 218 221 222 222 221 220 218 215 211 208 207 211 218 226 233 238 242 243 242 239 235 230 226 224 223 224 225 226 227 228 228 230 234 237
63 64 64 64 63 63 63 63 62 62 62 60 59 59 58 57 57 57 60 64 68 70 71 71 72 74 77 80 85 93 105 119 137 158 177 191 200 207 210 213 214 215 215 213 211 208 207 206 207 212 220 231 238 242 243 240 236 231 228 226 225 224 225 226 226 225 226 228 232
57 57 57 58 58 58 58 58 57 56 54 53 52 51 49 48 48 49 50 53 56 59 60 61 62 63 64 66 68 72 77 83 89 97 106 118 135 156 175 187 195 200 203 205 206 206 206 206 205 203 203 206 213 222 229 234 235 235 234 232 229 227 226 225 225 225 227 230 233
51 51 52 52 52 53 53 53 51 50 49 48 47 45 43 42 41 41 42 43 45 46 47 48 48 48 48 49 52 57 63 69 74 77 80 83 87 95 106 122 140 158 171 182 190 195 197 199 200 201 202 202 203 207 212 217 223 228 232 234 235 234 231 229 227 228 231 236 239
49 48 47 47 47 48 48 47 45 45 45 45 44 42 40 38 37 36 36 36 37 38 38 38 37 36 35 34 35 38 44 52 60 66 70 70 70 71 73 78 84 92 103 119 146 168 181 188 193 197 200 203 207 210 213 216 219 222 223 225 229 231 233 234 233 232 233 235 237
50 49 47 46 45 44 43 42 41 41 42 43 43 41 40 38 36 34 33 33 33 33 33 33 31 30 28 27 26 25 27 31 39 49 56 58 56 55 56 59 62 64 67 71 80 100 130 159 177 189 196 202 207 211 215 219 223 226 227 227 226 225 227 230 232 234 235 234 233
52 51 50 49 47 45 43 41 40 40 41 42 43 43 42 41 39 37 35 34 32 31 31 31 29 27 25 24 23 21 20 20 23 28 32 35 35 35 36 39 42 46 49 52 55 61 69 82 103 138 172 190 200 207 212 216 221 225 228 230 230 229 228 228 229 231 233 235 236
53 53 53 54 53 51 49 47 46 46 45 45 44 44 44 44 44 44 43 40 37 34 32 30 29 26 25 24 23 22 20 19 18 17 16 16 15 15 16 17 19 22 25 29 32 34 37 41 46 54 66 97 153 187 201 209 214 218 223 226 228 230 231 231 232 231 231 232 235
55 54 54 56 57 58 58 57 56 55 54 53 51 49 48 47 46 48 49 48 45 40 36 32 29 27 25 25 25 26 25 24 23 19 15 11 7 5 5 4 2 1 1 1 1 0 359 360 1 4 9 15 21 30 53 184 202 209 215 220 224 227 229 230 231 230 230 230 231
59 56 54 55 57 59 60 59 58 57 56 56 55 54 51 48 45 45 47 49 49 46 40 33 29 27 26 25 25 26 27 28 29 27 24 19 13 9 6 3 359 355 352 349 346 343 340 338 335 335 334 335 334 334 333 331 327 315 281 243 233 231 231 230 229 227 227 227 229
59 57 55 54 54 54 54 54 54 53 52 52 51 50 50 48 45 43 43 45 47 48 45 38 32 29 27 25 24 24 25 25 26 27 27 24 22 18 14 9 4 360 355 350 345 340 336 333 329 326 323 320 318 316 313 310 308 307 307 304 301 295 286 274 260 246 236 231 230
55 54 53 52 51 50 50 50 50 49 48 47 46 45 44 44 42 41 41 41 42 45 47 45 40 35 30 27 25 23 22 21 20 20 20 20 19 17 15 11 6 2 357 353 349 345 340 336 331 326 321 318 314 311 308 306 303 302 300 300 300 300 300 300 298 292 282 269 255
50 49 49 48 47 47 46 46 45 45 44 43 42 41 40 39 39 38 37 37 38 39 41 43 42 40 37 33 29 26 23 20 18 17 16 14 13 11 7 4 359 355 352 349 347 346 344 341 336 331 326 321 316 312 309 306 304 302 300 299 299 299 299 300 299 298 295 291 286
47 46 45 44 43 43 42 41 41 40 40 39 38 37 36 36 35 34 34 34 34 35 35 36 36 36 35 32 30 27 24 22 19 17 15 13 10 8 4 359 356 353 351 349 347 345 341 338 336 335 333 329 324 318 312 309 306 304 302 300 299 298 298 298 298 297 296 293 291
44 44 43 42 41 40 39 38 38 37 37 36 35 34 33 32 31 30 30 30 30 30 30 30 30 30 29 28 26 24 22 20 18 16 14 13 11 8 4 0 358 356 355 354 352 348 343 338 335 333 331 330 328 324 317 311 307 304 302 301 299 298 297 295 294 293 292 291 289
43 42 41 40 39 38 37 37 36 35 35 33 32 31 30 29 28 27 27 27 27 27 26 26 26 25 24 23 21 20 19 18 16 14 13 11 10 8 5 3 1 360 358 357 353 350 345 341 337 333 329 327 325 323 319 314 308 303 300 298 296 295 294 292 290 287 285 283 281
41 40 39 38 37 36 35 35 34 33 32 31 30 29 28 27 26 25 24 24 24 24 23 23 23 22 20 19 18 17 17 16 14 13 11 9 8 7 6 4 2 1 359 357 353 349 346 343 339 335 331 328 326 324 321 317 312 306 300 295 292 290 288 287 285 283 279 276 273
39 38 37 35 34 34 33 32 31 31 30 29 28 27 26 25 24 23 23 23 22 22 22 21 21 19 18 17 16 16 15 14 13 12 10 9 7 6 5 4 3 1 358 355 352 349 346 343 340 337 334 332 330 327 324 321 317 313 308 303 297 292 287 284 281 278 275 272 269
36 35 34 33 32 31 30 29 29 29 28 27 26 25 24 24 23 23 22 22 21 21 21 20 19 17 16 16 15 14 13 13 12 11 10 8 7 6 5 4 2 360 357 354 351 348 345 343 340 338 335 334 332 331 328 325 322 319 315 312 307 303 299 294 289 284 279 274 270
33 32 31 30 29 29 28 27 27 27 26 25 24 24 23 22 22 22 22 21 21 21 21 19 18 16 16 15 14 13 12 11 10 9 8 7 6 5 4 3 1 359 356 354 351 349 346 343 341 338 336 335 333 332 330 328 325 323 320 317 314 311 308 305 302 298 294 289 283
30 29 28 27 27 26 26 25 25 24 24 23 22 22 21 21 22 22 21 21 21 20 19 18 17 16 15 14 13 12 11 10 8 7 6 5 4 4 3 1 359 357 355 353 351 349 346 344 341 339 337 335 334 332 330 328 326 324 323 320 318 316 314 311 309 306 304 301 297
28 27 26 25 25 24 23 22 22 21 21 20 20 20 20 20 20 20 20 19 19 18 17 16 15 14 13 12 11 10 9 8 7 6 5 4 3 2 0 359 357 356 354 352 350 348 345 343 341 339 337 335 333 331 330 328 326 324 322 321 319 318 317 315 313 311 309 307 305
25 24 24 23 23 22 21 20 19 19 18 18 17 17 17 17 17 17 17 16 16 15 14 13 12 12 11 10 9 8 7 6 5 4 3 2 1 359 358 357 356 355 353 351 349 347 345 342 340 338 336 334 332 330 329 327 325 323 322 320 319 318 317 315 314 313 311 310 309
22 22 21 20 20 19 18 17 16 16 15 15 15 15 15 14 14 14 14 13 13 12 11 11 10 9 8 7 6 6 5 4 3 2 1 359 358 357 356 355 354 353 352 350 348 346 345 343 341 339 336 334 333 331 330 328 327 325 324 322 320 318 316 315 313 313 312 311 311
19 18 18 17 17 16 15 14 14 13 13 13 12 12 12 12 12 11 11 10 10 9 8 8 7 6 5 4 3 2 1 0 360 359 358 357 355 354 353 353 352 351 350 349 348 347 345 344 342 341 339 337 336 334 333 332 331 329 327 325 323 320 318 316 314 312 312 311 311
16 15 15 14 14 13 13 12 11 11 11 11 10 10 10 10 9 9 8 8 7 6 6 5 4 3 2 1 360 359 358 357 357 356 355 354 353 352 352 351 350 349 349 349 348 348 347 346 345 344 343 342 341 339 338 336 334 332 330 328 326 323 321 319 316 314 313 311 310
14 13 12 12 11 11 10 10 9 9 9 9 9 8 8 8 7 7 6 5 5 4 4 3 2 1 360 359 358 357 355 355 354 354 353 352 352 352 352 351 350 350 350 351 350 350 350 350 349 348 346 345 344 342 340 338 335 333 331 330 328 326 325 323 321 318 315 313 311
11 11 10 9 8 8 8 7 7 7 7 7 6 6 6 6 5 5 4 4 4 3 2 1 0 359 358 357 356 355 354 353 353 352 352 351 351 352 353 353 353 353 353 354 355 355 355 355 353 351 349 347 345 342 340 338 336 334 333 332 330 329 328 327 325 323 320 317 314
9 8 8 6 6 5 4 4 4 4 4 4 4 4 3 3 3 3 3 3 2 1 0 360 359 358 357 356 354 354 353 352 351 350 350 350 351 352 353 355 356 356 357 358 359 360 0 360 358 355 352 349 346 344 341 339 338 336 335 334 333 332 331 330 328 326 324 321 319
7 6 5 4 3 2 2 1 1 1 1 1 1 1 1 1 1 1 0 0 360 359 358 357 356 355 354 353 351 350 349 348 347 346 346 347 347 348 349 351 353 354 356 357 359 1 2 2 0 358 356 353 350 347 345 342 341 340 338 337 335 333 332 330 329 327 326 325 323
5 4 3 2 1 360 359 359 359 359 358 358 358 358 358 358 357 357 357 357 356 355 354 353 352 351 350 348 346 344 343 341 340 339 339 339 339 339 340 341 342 344 346 348 350 353 355 356 356 357 356 354 353 352 350 348 346 343 341 338 336 334 331 329 327 327 326 326 325
Height
1412 1413 1413 1413 1414 1415 1416 1416 1417 1417 1417 1418 1418 1419 1419 1418 1417 1418 1419 1420 1420 1420 1420 1420 1420 1420 1420 1420 1420 1419 1419 1418 1418 1418 1418 1418 1418 1419 1419 1420 1420 1419 1420 1420 1421 1421 1422 1422 1422 1423 1423 1423 1424 1424 1425 1426 1428 1430 1431 1432 1434 1436 1438 1439 1440 1441 1443 1445 1446
1411 1412 1412 1412 1413 1412 1412 1412 1412 1413 1414 1415 1416 1416 1416 1416 1416 1416 1417 1417 1417 1417 1417 1418 1418 1418 1418 1418 1418 1417 1416 1416 1416 1416 1416 1416 1416 1416 1417 1418 1418 1417 1417 1418 1418 1419 1419 1420 1420 1420 1421 1421 1421 1422 1423 1425 1427 1428 1430 1431 1433 1434 1436 1437 1438 1439 1440 1442 1444
1411 1411 1411 1412 1412 1412 1412 1412 1412 1412 1413 1413 1413 1412 1412 1412 1412 1413 1414 1414 1415 1415 1416 1416 1416 1416 1416 1416 1416 1415 1415 1415 1414 1414 1414 1414 1414 1415 1416 1416 1416 1416 1416 1416 1416 1416 1417 1417 1418 1418 1419 1419 1420 1421 1423 1424 1426 1427 1429 1430 1432 1433 1435 1435 1436 1437 1438 1440 1442
1410 1410 1410 1410 1411 1411 1411 1412 1412 1412 1412 1412 1412 1412 1412 1412 1412 1413 1413 1413 1414 1414 1413 1413 1413 1414 1414 1415 1414 1414 1414 1413 1413 1413 1413 1413 1413 1414 1414 1414 1415 1415 1415 1414 1414 1414 1415 1415 1416 1417 1418 1419 1420 1421 1422 1423 1425 1426 1428 1429 1431 1432 1432 1433 1434 1435 1436 1437 1439
1410 1410 1410 1410 1410 1410 1411 1411 1412 1412 1412 1411 1411 1411 1411 1411 1412 1412 1412 1412 1412 1412 1412 1412 1412 1412 1412 1413 1413 1413 1413 1412 1412 1412 1412 1413 1413 1413 1413 1413 1413 1413 1414 1414 1414 1414 1414 1414 1415 1416 1417 1418 1419 1420 1421 1422 1424 1425 1426 1428 1429 1429 1430 1431 1431 1432 1433 1434 1436
1410 1410 1410 1410 1410 1410 1411 1411 1412 1412 1411 1411 1411 1411 1411 1411 1411 1411 1411 1411 1411 1411 1411 1411 1411 1411 1411 1410 1410 1411 1411 1411 1412 1412 1412 1412 1412 1412 1412 1412 1412 1412 1413 1413 1414 1414 1414 1414 1415 1415 1416 1417 1418 1419 1420 1421 1423 1424 1425 1426 1427 1427 1428 1428 1429 1430 1431 1432 1434
1410 1410 1411 1411 1411 1411 1411 1412 1412 1412 1411 1410 1410 1410 1411 1411 1411 1410 1410 1410 1410 1409 1409 1409 1409 1409 1409 1409 1409 1409 1409 1409 1410 1410 1411 1411 1412 1412 1412 1412 1412 1412 1412 1413 1413 1414 1414 1414 1414 1414 1415 1416 1416 1417 1418 1420 1421 1423 1424 1425 1426 1426 1427 1427 1428 1428 1430 1431 1433
1411 1411 1412 1412 1412 1412 1412 1412 1412 1412 1411 1410 1410 1410 1411 1411 1411 1411 1410 1410 1409 1408 1407 1407 1407 1407 1407 1407 1408 1408 1408 1409 1409 1409 1409 1409 1410 1411 1411 1411 1412 1412 1412 1412 1413 1413 1413 1413 1414 1414 1415 1415 1416 1416 1417 1418 1419 1421 1422 1424 1425 1426 1426 1427 1427 1428 1430 1431 1432
1412 1412 1413 1413 1413 1413 1413 1413 1413 1412 1411 1410 1410 1411 1411 1412 1412 1412 1411 1410 1409 1408 1407 1406 1406 1406 1406 1406 1406 1407 1407 1407 1408 1408 1408 1408 1408 1409 1409 1410 1411 1411 1412 1412 1413 1413 1413 1413 1413 1414 1414 1415 1416 1416 1417 1418 1418 1419 1420 1421 1423 1424 1425 1426 1427 1428 1429 1431 1431
1413 1414 1414 1414 1414 1414 1414 1414 1413 1412 1411 1411 1411 1412 1412 1413 1412 1412 1411 1411 1409 1407 1406 1406 1406 1406 1405 1406 1406 1406 1406 1406 1406 1407 1407 1408 1408 1408 1408 1408 1408 1409 1410 1411 1411 1412 1413 1413 1414 1414 1414 1415 1416 1416 1417 1418 1418 1419 1419 1420 1421 1422 1423 1424 1425 1426 1427 1428 1429
1415 1415 1415 1415 1415 1415 1414 1413 1412 1412 1412 1412 1412 1412 1413 1412 1412 1411 1411 1410 1409 1407 1406 1406 1406 1406 1406 1406 1406 1406 1405 1405 1406 1406 1406 1406 1407 1407 1408 1408 1408 1408 1408 1408 1409 1410 1411 1413 1413 1414 1414 1415 1416 1416 1417 1417 1418 1419 1419 1419 1420 1420 1421 1422 1423 1424 1425 1426 1427
1416 1416 1416 1416 1416 1415 1414 1413 1412 1412 1413 1413 1412 1412 1412 1412 1412 1411 1411 1410 1408 1407 1407 1407 1407 1407 1407 1407 1407 1406 1406 1406 1406 1406 1406 1406 1406 1406 1406 1407 1407 1408 1408 1408 1408 1409 1409 1409 1410 1412 1413 1414 1415 1416 1416 1417 1417 1418 1418 1419 1419 1420 1420 1420 1421 1421 1422 1423 1425
1419 1419 1418 1417 1416 1415 1414 1413 1413 1413 1413 1413 1412 1412 1412 1412 1412 1412 1411 1409 1408 1407 1407 1407 1407 1407 1407 1407 1407 1407 1407 1406 1406 1406 1406 1406 1406 1406 1406 1406 1406 1406 1407 1407 1408 1408 1408 1408 1409 1409 1410 1412 1413 1415 1416 1417 1417 1418 1418 1419 1419 1419 1420 1420 1420 1421 1421 1422 1423
1420 1419 1418 1417 1416 1415 1414 1414 1415 1414 1414 1414 1413 1413 1413 1413 1413 1412 1411 1410 1409 1408 1408 1408 1407 1407 1408 1408 1408 1408 1407 1407 1407 1407 1407 1406 1406 1406 1406 1406 1406 1406 1406 1406 1407 1407 1407 1407 1408 1408 1409 1409 1410 1411 1413 1414 1416 1417 1418 1418 1419 1419 1420 1420 1420 1421 1421 1421 1422
1420 1419 1418 1417 1416 1415 1415 1415 1416 1416 1415 1415 1414 1414 1414 1414 1413 1412 1412 1411 1410 1410 1409 1408 1408 1408 1408 1408 1408 1408 1408 1408 1407 1407 1407 1407 1407 1407 1406 1406 1406 1406 1406 1406 1406 1406 1406 1406 1407 1408 1408 1409 1410 1411 1411 1412 1413 1414 1415 1416 1417 1418 1419 1420 1420 1420 1420 1421 1421
1422 1421 1419 1418 1417 1416 1415 1415 1416 1416 1416 1416 1416 1416 1415 1415 1415 1414 1413 1412 1412 1411 1411 1410 1409 1409 1409 1409 1409 1409 1408 1408 1407 1407 1407 1407 1407 1407 1406 1406 1406 1406 1406 1406 1406 1406 1406 1406 1407 1407 1408 1409 1409 1410 1411 1411 1412 1413 1413 1413 1414 1415 1416 1417 1419 1419 1420 1420 1420
1425 1424 1422 1421 1419 1418 1417 1417 1418 1418 1418 1418 1418 1418 1418 1418 1417 1417 1416 1415 1414 1413 1412 1412 1411 1411 1411 1411 1410 1410 1409 1408 1408 1408 1407 1407 1407 1407 1407 1406 1406 1406 1406 1406 1406 1406 1406 1407 1407 1408 1408 1408 1409 1409 1410 1411 1411 1412 1412 1413 1413 1413 1414 1414 1415 1416 1417 1418 1419
1427 1426 1425 1423 1422 1421 1421 1421 1422 1421 1421 1420 1420 1420 1420 1420 1420 1420 1419 1418 1416 1416 1415 1414 1414 1413 1413 1412 1411 1411 1410 1410 1409 1409 1408 1408 1408 1407 1407 1407 1406 1406 1406 1406 1406 1407 1407 1408 1408 1408 1408 1409 1409 1409 1409 1410 1410 1410 1411 1411 1412 1412 1413 1413 1413 1414 1414 1415 1416
1429 1428 1427 1426 1426 1425 1425 1425 1425 1425 1424 1423 1423 1423 1422 1422 1422 1422 1421 1419 1418 1417 1417 1416 1416 1415 1414 1414 1413 1412 1412 1411 1411 1411 1410 1410 1409 1408 1408 1408 1407 1407 1407 1407 1407 1408 1408 1408 1408 1408 1409 1409 1409 1409 1409 1409 1409 1409 1410 1410 1411 1411 1411 1412 1412 1413 1413 1413 1413
1430 1430 1430 1429 1428 1428 1428 1427 1427 1426 1426 1426 1425 1425 1425 1425 1424 1423 1422 1420 1419 1418 1418 1417 1417 1416 1415 1415 1414 1413 1413 1413 1412 1412 1412 1411 1411 1410 1409 1409 1408 1408 1408 1408 1408 1408 1408 1408 1408 1408 1408 1408 1409 1409 1409 1409 1409 1409 1409 1409 1410 1410 1411 1411 1411 1411 1411 1411 1412
1431 1431 1431 1431 1430 1430 1429 1428 1428 1427 1427 1426 1426 1426 1426 1425 1425 1424 1422 1421 1420 1420 1419 1418 1418 1417 1416 1416 1415 1414 1414 1414 1413 1413 1412 1412 1411 1411 1411 1411 1410 1410 1410 1409 1409 1409 1409 1408 1408 1408 1408 1408 1408 1408 1408 1408 1408 1409 1409 1409 1409 1409 1409 1410 1410 1410 1410 1410 1411
1432 1432 1432 1432 1431 1431 1430 1430 1429 1428 1428 1427 1427 1426 1426 1426 1425 1424 1423 1422 1421 1421 1420 1419 1419 1418 1417 1417 1416 1416 1415 1415 1414 1414 1413 1413 1412 1412 1412 1411 1411 1411 1411 1410 1410 1410 1409 1409 1408 1408 1408 1408 1408 1408 1408 1408 1408 1408 1408 1408 1408 1408 1408 1408 1408 1408 1409 1409 1409
1433 1433 1433 1433 1432 1431 1431 1430 1430 1429 1429 1428 1428 1427 1427 1426 1426 1425 1424 1423 1422 1421 1421 1420 1420 1419 1419 1418 1418 1417 1416 1416 1415 1415 1414 1414 1413 1413 1412 1412 1412 1411 1411 1411 1410 1410 1410 1409 1409 1409 1408 1408 1407 1407 1407 1407 1407 1407 1407 1407 1407 1407 1408 1407 1407 1407 1407 1407 1408
1435 1435 1434 1434 1433 1432 1432 1431 1430 1430 1429 1429 1429 1428 1427 1427 1426 1426 1425 1424 1423 1422 1421 1421 1420 1420 1419 1419 1418 1418 1417 1417 1416 1416 1415 1414 1414 1413 1413 1412 1412 1411 1411 1411 1410 1410 1410 1409 1409 1409 1408 1408 1408 1407 1407 1407 1406 1406 1406 1406 1406 1407 1407 1407 1406 1406 1406 1407 1407
1436 1436 1435 1435 1434 1433 1433 1432 1431 1431 1430 1430 1429 1428 1428 1427 1426 1426 1425 1424 1423 1422 1422 1421 1421 1420 1420 1419 1419 1418 1418 1417 1416 1416 1415 1415 1414 1414 1413 1413 1412 1412 1411 1411 1411 1410 1410 1409 1408 1408 1408 1408 1408 1408 1407 1407 1407 1406 1406 1406 1406 1406 1406 1406 1406 1406 1406 1406 1406
1438 1437 1437 1436 1436 1435 1434 1433 1433 1432 1431 1431 1430 1429 1428 1427 1427 1426 1425 1424 1423 1423 1422 1421 1421 1420 1420 1419 1419 1418 1418 1417 1416 1416 1416 1415 1415 1414 1414 1413 1413 1412 1412 1411 1411 1410 1410 1409 1409 1408 1408 1408 1408 1407 1407 1407 1407 1407 1406 1406 1406 1406 1405 1405 1405 1406 1406 1406 1406
1440 1439 1438 1437 1436 1436 1435 1434 1434 1433 1432 1431 1430 1430 1429 1428 1428 1427 1426 1425 1424 1423 1423 1422 1421 1421 1420 1420 1419 1418 1418 1417 1417 1416 1416 1415 1415 1415 1414 1414 1413 1413 1412 1412 1411 1411 1410 1409 1409 1408 1408 1407 1407 1407 1407 1407 1406 1406 1406 1406 1406 1406 1406 1405 1405 1405 1405 1406 1406
1440 1440 1439 1438 1437 1436 1436 1435 1434 1433 1432 1432 1431 1431 1430 1429 1428 1427 1426 1426 1425 1424 1423 1422 1421 1421 1421 1420 1419 1419 1418 1417 1417 1416 1416 1416 1415 1415 1414 1414 1413 1413 1412 1412 1411 1411 1410 1409 1409 1408 1407 1407 1407 1407 1406 1406 1406 1406 1406 1405 1405 1405 1405 1405 1405 1405 1405 1405 1405
1441 1440 1439 1438 1438 1437 1436 1435 1434 1434 1433 1432 1432 1431 1431 1430 1429 1428 1427 1426 1425 1424 1423 1422 1422 1422 1421 1420 1420 1419 1418 1418 1417 1417 1416 1416 1415 1415 1414 1414 1413 1413 1412 1412 1411 1411 1410 1409 1409 1408 1407 1407 1407 1406 1406 1406 1406 1405 1405 1405 1404 1404 1404 1404 1404 1404 1404 1404 1404
1441 1440 1439 1439 1438 1437 1436 1435 1435 1434 1433 1433 1432 1431 1431 1430 1429 1428 1427 1426 1425 1425 1424 1424 1423 1422 1421 1421 1420 1419 1419 1418 1417 1417 1416 1416 1415 1415 1414 1414 1413 1413 1412 1412 1411 1410 1410 1409 1408 1408 1407 1407 1406 1406 1406 1405 1405 1404 1404 1404 1404 1403 1403 1403 1402 1402 1402 1402 1402
1442 1441 1440 1439 1438 1437 1436 1436 1435 1434 1433 1433 1432 1431 1431 1430 1429 1428 1427 1426 1426 1425 1425 1424 1423 1423 1422 1421 1421 1420 1419 1418 1418 1417 1416 1416 1416 1415 1414 1414 1413 1413 1412 1411 1411 1410 1409 1408 1408 1407 1406 1406 1406 1406 1405 1405 1404 1404 1403 1403 1403 1402 1402 1402 1401 1401 1401 1400 1400
1442 1441 1441 1440 1439 1438 1437 1436 1435 1434 1434 1433 1432 1431 1430 1429 1428 1427 1427 1426 1426 1425 1424 1424 1423 1422 1422 1421 1420 1420 1419 1418 1418 1417 1416 1416 1415 1415 1414 1414 1413 1412 1411 1411 1410 1409 1408 1408 1407 1406 1406 1405 1405 1405 1404 1404 1403 1403 1402 1402 1401 1401 1401 1401 1400 1400 1399 1399 1398
1443 1442 1441 1440 1439 1438 1437 1436 1436 1435 1434 1433 1432 1431 1430 1429 1428 1427 1426 1426 1425 1424 1424 1423 1422 1421 1421 1420 1420 1419 1419 1418 1417 1417 1416 1416 1415 1414 1414 1413 1412 1412 1411 1411 1410 1409 1408 1407 1406 1406 1405 1404 1404 1404 1403 1403 1402 1402 1402 1401 1401 1400 1400 1399 1399 1398 1398 1397 1397
1443 1442 1441 1440 1439 1438 1437 1436 1436 1435 1434 1433 1432 1431 1430 1429 1428 1427 1426 1425 1425 1424 1423 1422 1421 1421 1420 1420 1419 1419 1418 1417 1417 1416 1416 1415 1414 1414 1413 1412 1411 1411 1411 1410 1409 1408 1407 1406 1406 1405 1404 1403 1403 1402 1402 1401 1401 1401 1401 1400 1400 1400 1399 1398 1398 1397 1396 1396 1396
1442 1441 1441 1440 1439 1438 1437 1436 1435 1434 1433 1432 1431 1431 1430 1429 1428 1427 1426 1425 1424 1424 1423 1422 1421 1421 1420 1419 1418 1418 1417 1416 1416 1415 1415 1414 1413 1413 1412 1411 1411 1410 1410 1409 1408 1407 1406 1405 1404 1403 1403 1402 1401 1401 1400 1400 1400 1399 1399 1399 1398 1398 1398 1397 1397 1396 1396 1395 1395
1442 1441 1440 1439 1438 1437 1436 1435 1434 1434 1433 1432 1431 1430 1429 1428 1427 1426 1426 1425 1424 1423 1422 1421 1421 1420 1419 1418 1417 1417 1416 1415 1415 1414 1413 1413 1412 1411 1411 1410 1410 1409 1408 1407 1406 1406 1405 1404 1403 1402 1401 1400 1400 1399 1399 1398 1398 1398 1397 1397 1396 1396 1396 1396 1395 1395 1395 1394 1394
1441 1440 1439 1438 1437 1436 1436 1435 1434 1433 1432 1431 1430 1429 1429 1428 1427 1426 1426 1425 1424 1423 1422 1421 1420 1419 1418 1417 1416 1416 1415 1414 1413 1412 1412 1411 1411 1410 1409 1408 1408 1407 1406 1406 1405 1404 1403 1402 1401 1400 1400 1399 1398 1398 1397 1397 1396 1396 1395 1395 1395 1394 1394 1394 1393 1393 1393 1393 1392
1441 1440 1439 1438 1437 1436 1436 1435 1434 1433 1432 1431 1430 1429 1428 1428 1427 1426 1425 1424 1423 1422 1421 1421 1420 1419 1418 1417 1416 1415 1414 1413 1412 1411 1410 1410 1409 1408 1407 1406 1406 1405 1404 1404 1403 1402 1402 1401 1400 1399 1398 1398 1397 1396 1396 1396 1395 1394 1394 1393 1393 1392 1392 1392 1391 1391 1391 1391 1391
1442 1441 1440 1439 1438 1437 1436 1435 1434 1433 1432 1431 1431 1430 1429 1428 1426 1426 1425 1424 1423 1422 1421 1421 1420 1419 1418 1417 1416 1415 1414 1413 1412 1411 1410 1409 1408 1407 1406 1405 1404 1403 1403 1402 1402 1401 1401 1400 1400 1399 1398 1397 1396 1396 1395 1394 1394 1393 1393 1392 1391 1391 1390 1390 1390 1389 1389 1389 1389
1444 1443 1442 1441 1440 1439 1438 1436 1436 1434 1433 1432 1431 1430 1429 1428 1427 1426 1426 1425 1424 1423 1422 1421 1421 1420 1419 1418 1417 1416 1415 1414 1413 1412 1411 1410 1409 1407 1406 1406 1405 1404 1403 1402 1401 1401 1401 1400 1399 1398 1398 1397 1396 1395 1394 1394 1393 1392 1392 1391 1391 1390 1389 1389 1388 1388 1387 1387 1387
1446 1445 1444 1442 1441 1440 1439 1438 1437 1436 1435 1434 1433 1432 1431 1430 1430 1429 1428 1427 1427 1426 1425 1424 1424 1423 1422 1421 1420 1419 1418 1417 1416 1415 1414 1413 1411 1410 1409 1408 1407 1406 1405 1404 1402 1401 1401 1400 1399 1398 1397 1396 1395 1394 1393 1393 1392 1391 1391 1391 1390 1389 1388 1387 1387 1386 1386 1385 1385